EW1898 Weather Reports


time (UTC)temp
F
wind
direction
speed
knots
gust
knots
rain 1hr
in
rain 24hr
in
rain mn
in
humidity
%
barometer
mb
20191014164514 60 291 0.0 0.9 0.00 0.00 0.00 78 1013.9
20191014163020 59 293 0.0 0.0 0.00 0.00 0.00 82 1014.1
20191014161506 58 317 0.0 0.9 0.00 0.00 0.00 85 1014.5
20191014160002 57 317 0.0 2.6 0.00 0.00 0.00 86 1014.7
20191014154705 56 330 0.0 2.6 0.00 0.00 0.00 89 1014.9
20191014153202 55 302 0.0 1.7 0.00 0.00 0.00 91 1015.1
20191014151637 54 286 0.0 0.9 0.00 0.00 0.00 94 1015.4
20191014150139 52 285 0.0 0.0 0.00 0.00 0.00 96 1015.7
20191014144715 51 285 0.0 0.0 0.00 0.00 0.00 98 1015.8
20191014143123 50 285 0.0 0.9 0.00 0.00 0.00 100 1015.8
20191014141704 49 285 0.0 0.0 0.00 0.00 0.00 100 1016.0
20191014140120 48 285 0.0 0.9 0.00 0.00 0.00 100 1016.1
20191014134619 47 285 0.0 0.0 0.00 0.00 0.00 100 1016.0
20191014133114 46 285 0.0 0.0 0.00 0.00 0.00 100 1016.1
20191014131622 44 285 0.0 0.0 0.00 0.00 0.00 100 1016.1
20191014130057 43 285 0.0 0.0 0.00 0.00 0.00 99 1016.3
20191014124618 41 285 0.0 0.0 0.00 0.00 0.00 99 1016.2
20191014123058 40 285 0.0 0.0 0.00 0.00 0.00 99 1016.5
20191014121559 39 285 0.0 0.0 0.00 0.00 0.00 99 1016.6
20191014120119 39 285 0.0 0.0 0.00 0.00 0.00 99 1016.4
20191014114618 38 285 0.0 0.0 0.00 0.00 0.00 99 1016.2
20191014113126 38 285 0.0 0.0 0.00 0.00 0.00 99 1016.1
20191014111633 38 285 0.0 0.0 0.00 0.00 0.00 99 1015.8
20191014110146 38 285 0.0 0.0 0.00 0.00 0.00 99 1015.6
20191014104550 38 285 0.0 0.0 0.00 0.00 0.00 99 1015.7
20191014103052 38 285 0.0 0.0 0.00 0.00 0.00 99 1015.6
20191014101537 38 285 0.0 0.0 0.00 0.00 0.00 98 1015.6
20191014100125 39 285 0.0 0.0 0.00 0.00 0.00 98 1015.6
20191014094618 39 285 0.0 0.0 0.00 0.00 0.00 98 1015.5
20191014093107 40 285 0.0 0.0 0.00 0.00 0.00 98 1015.3
20191014091553 40 285 0.0 0.0 0.00 0.00 0.00 98 1015.7
20191014090113 40 285 0.0 0.0 0.00 0.00 0.00 98 1015.5
20191014084618 41 285 0.0 0.0 0.00 0.00 0.00 98 1015.7
20191014083039 43 285 0.0 0.0 0.00 0.00 0.00 99 1015.6
20191014081543 43 285 0.0 0.0 0.00 0.00 0.00 99 1015.7
20191014080021 43 285 0.0 0.0 0.00 0.00 0.00 99 1015.5
20191014074533 43 285 0.0 0.0 0.00 0.00 0.00 99 1015.7
20191014073020 42 285 0.0 0.0 0.00 0.00 0.00 98 1016.1
20191014071508 43 285 0.0 0.0 0.00 0.00 0.00 98 1016.1
20191014070014 43 285 0.0 0.0 0.00 0.00 0.00 98 1016.0
20191014064513 43 285 0.0 0.0 0.00 0.00 0.00 98 1016.4
20191014061719 44 285 0.0 0.0 0.00 0.00 0.00 98 1016.6
20191014060224 44 285 0.0 0.0 0.00 0.00 0.00 98 1016.7
20191014054644 44 285 0.0 0.0 0.00 0.00 0.00 98 1017.0
20191014053200 45 285 0.0 0.0 0.00 0.00 0.00 97 1017.1
20191014051650 47 285 0.0 0.0 0.00 0.00 0.00 98 1017.0
20191014050153 47 285 0.0 0.0 0.00 0.00 0.00 98 1016.8
20191014044650 47 285 0.0 0.0 0.00 0.00 0.00 97 1016.5
20191014043204 48 285 0.0 0.0 0.00 0.00 0.00 98 1016.6
20191014041634 50 285 0.0 0.9 0.00 0.00 0.00 98 1016.5
20191014040119 49 285 0.0 0.9 0.00 0.00 0.00 98 1016.5
20191014034643 49 285 0.0 0.9 0.00 0.00 0.00 98 1016.6
20191014033136 49 285 0.0 0.0 0.00 0.00 0.00 98 1016.6
20191014031700 49 285 0.0 0.0 0.00 0.00 0.00 97 1016.4
20191014030132 50 285 0.0 0.0 0.00 0.00 0.00 97 1016.6
20191014024617 50 285 0.0 0.0 0.00 0.00 0.00 96 1016.9
20191014023112 51 285 0.0 0.0 0.00 0.00 0.00 96 1016.9
20191014021708 51 285 0.0 0.0 0.00 0.00 0.00 95 1017.2
20191014020134 51 285 0.0 0.0 0.00 0.00 0.00 94 1017.2
20191014014609 52 285 0.0 0.9 0.00 0.00 0.00 94 1017.1
20191014013212 52 285 0.0 0.0 0.00 0.00 0.00 93 1017.1
20191014011614 52 285 0.0 0.9 0.00 0.00 0.00 90 1016.9
20191014010152 52 285 0.0 0.0 0.00 0.00 0.00 86 1017.0
20191014004708 52 285 0.0 0.0 0.00 0.00 0.00 84 1017.0
20191014003146 52 285 0.0 0.0 0.00 0.00 0.00 81 1016.8
20191014001554 53 285 0.0 0.0 0.00 0.00 0.00 79 1016.7
20191014000126 54 285 0.0 0.9 0.00 0.00 0.00 78 1016.7
20191013234608 54 285 0.0 0.0 0.00 0.00 0.00 77 1016.6
20191013233041 54 285 0.0 0.0 0.00 0.00 0.00 76 1016.7
20191013231546 55 285 0.0 0.9 0.00 0.00 0.00 76 1016.8
20191013230146 55 285 0.0 0.9 0.00 0.00 0.00 78 1016.8
20191013224620 55 285 0.0 0.0 0.00 0.00 0.00 78 1016.8
20191013223043 56 285 0.0 0.0 0.00 0.00 0.00 80 1016.7
20191013221625 57 285 0.0 0.9 0.00 0.00 0.00 81 1016.8
20191013220104 57 285 0.0 0.0 0.00 0.00 0.00 80 1016.6
20191013214534 58 285 0.0 0.0 0.00 0.00 0.00 80 1016.6
20191013213111 59 285 0.0 0.0 0.00 0.00 0.00 78 1016.6
20191013211544 60 285 0.0 0.0 0.00 0.00 0.00 76 1016.7
20191013210112 61 285 0.0 0.0 0.00 0.00 0.00 75 1016.5
20191013204546 61 285 0.0 0.0 0.00 0.00 0.00 75 1016.5
20191013203055 62 285 0.0 0.0 0.00 0.00 0.00 72 1016.3
20191013201621 63 285 0.0 0.0 0.00 0.00 0.00 68 1016.4
20191013200136 63 285 0.0 0.0 0.00 0.00 0.00 67 1016.6
20191013194554 63 285 0.0 0.9 0.00 0.00 0.00 65 1016.6
20191013193037 62 286 0.0 0.9 0.00 0.00 0.00 68 1016.6
20191013191555 62 285 0.0 0.9 0.00 0.00 0.00 67 1016.7
20191013190049 62 286 0.0 0.9 0.00 0.00 0.00 68 1016.9
20191013184530 62 315 0.0 1.7 0.00 0.00 0.00 68 1017.0
20191013183031 62 305 0.0 1.7 0.00 0.00 0.00 69 1016.9
20191013181526 62 316 0.0 0.9 0.00 0.00 0.00 70 1017.2
20191013180016 62 315 0.9 3.5 0.00 0.00 0.00 71 1017.3
20191013174529 62 308 0.0 0.0 0.00 0.00 0.00 73 1017.3
20191013173027 61 308 0.0 0.0 0.00 0.00 0.00 73 1017.5
20191013171528 61 308 0.0 0.9 0.00 0.00 0.00 75 1017.5
20191013170017 61 307 0.0 1.7 0.00 0.00 0.00 75 1017.5